Location: Newark
(63.1158°N, 8.1461°E)
Time: 22:34:47
(UTC+00:00)

Envisat - Pass Details

Date: 20 December 2019
Orbit: 764 x 766 km, 98.1° (Epoch: 22 January)

Event Time Altitude Azimuth Distance (km) Brightness Sun altitude
Rises 16:29:20 0° 152° (SSE) 3,230 6.2 -14.8°
Reaches altitude 10° 16:31:38 10° 151° (SSE) 2,307 5.4 -15.0°
Maximum altitude 16:36:43 76° 67° (ENE) 797 2.9 -15.5°
Drops below altitude 10° 16:41:49 10° 343° (NNW) 2,320 5.5 -16.1°
Sets 16:44:08 0° 342° (NNW) 3,250 6.2 -16.3°
